Precipitable_Water
0.19 0.19 0.20 0.21 0.22 0.23 0.24 0.25 0.25 0.27 0.28 0.29 0.29 0.30 0.31 0.32 0.32 0.32 0.34 0.34 0.34 0.34 0.34 0.33 0.33 0.33 0.33 0.32 0.32 0.32 0.32 0.32 0.32 0.32 0.32 0.33 0.33 0.32 0.31 0.30 0.28 0.28 0.29 0.29 0.28 0.30 0.29 0.29 0.29 0.28 0.28 0.28 0.28 0.28 0.28 0.29 0.29 0.30 0.31 0.32 0.32 0.31 0.31 0.31 0.31 0.31 0.30 0.29 0.30 0.30 0.30 0.31 0.31 0.30 0.29 0.29 0.31 0.32 0.33 0.32 0.32 0.32 0.32 0.32 0.32
0.18 0.18 0.19 0.20 0.20 0.22 0.23 0.24 0.25 0.24 0.25 0.27 0.27 0.27 0.28 0.29 0.29 0.29 0.30 0.31 0.30 0.31 0.31 0.31 0.31 0.31 0.30 0.30 0.30 0.30 0.30 0.29 0.29 0.30 0.30 0.31 0.30 0.29 0.29 0.27 0.26 0.26 0.27 0.27 0.26 0.28 0.27 0.26 0.26 0.25 0.25 0.25 0.25 0.25 0.26 0.26 0.27 0.28 0.28 0.28 0.29 0.29 0.28 0.29 0.29 0.28 0.27 0.26 0.26 0.27 0.27 0.27 0.28 0.29 0.29 0.30 0.31 0.31 0.31 0.30 0.31 0.31 0.32 0.33 0.33
0.17 0.17 0.18 0.19 0.20 0.21 0.21 0.22 0.23 0.25 0.25 0.25 0.26 0.27 0.27 0.27 0.27 0.27 0.27 0.27 0.27 0.28 0.27 0.27 0.28 0.29 0.28 0.28 0.28 0.28 0.28 0.28 0.27 0.27 0.28 0.27 0.27 0.26 0.25 0.24 0.24 0.23 0.25 0.25 0.24 0.25 0.25 0.25 0.24 0.23 0.23 0.23 0.23 0.22 0.23 0.23 0.24 0.25 0.25 0.25 0.25 0.25 0.25 0.26 0.25 0.25 0.25 0.25 0.26 0.25 0.25 0.25 0.26 0.26 0.27 0.28 0.28 0.28 0.29 0.29 0.30 0.30 0.31 0.32 0.32
0.15 0.16 0.17 0.18 0.20 0.20 0.21 0.21 0.22 0.23 0.24 0.25 0.25 0.25 0.25 0.25 0.25 0.25 0.25 0.25 0.25 0.25 0.25 0.25 0.24 0.25 0.24 0.24 0.24 0.24 0.24 0.24 0.24 0.24 0.24 0.24 0.24 0.23 0.22 0.22 0.21 0.21 0.22 0.22 0.22 0.23 0.23 0.23 0.22 0.21 0.20 0.21 0.21 0.21 0.21 0.21 0.22 0.22 0.22 0.22 0.23 0.22 0.22 0.21 0.22 0.21 0.22 0.22 0.21 0.22 0.23 0.23 0.22 0.25 0.26 0.26 0.27 0.27 0.28 0.28 0.29 0.30 0.30 0.30 0.30
0.14 0.15 0.16 0.17 0.18 0.20 0.21 0.22 0.22 0.23 0.23 0.24 0.25 0.25 0.25 0.25 0.24 0.24 0.24 0.24 0.24 0.23 0.22 0.22 0.21 0.21 0.20 0.20 0.20 0.19 0.19 0.19 0.19 0.20 0.20 0.21 0.21 0.20 0.20 0.19 0.19 0.19 0.20 0.20 0.21 0.21 0.21 0.20 0.20 0.19 0.19 0.19 0.19 0.19 0.19 0.20 0.20 0.20 0.20 0.21 0.20 0.20 0.20 0.20 0.20 0.20 0.19 0.21 0.20 0.20 0.20 0.21 0.21 0.23 0.22 0.22 0.24 0.24 0.25 0.26 0.27 0.28 0.28 0.28 0.27
0.15 0.15 0.16 0.16 0.17 0.19 0.20 0.21 0.22 0.22 0.23 0.25 0.25 0.25 0.24 0.24 0.24 0.23 0.23 0.23 0.22 0.21 0.20 0.19 0.19 0.18 0.17 0.17 0.16 0.16 0.15 0.15 0.14 0.14 0.15 0.16 0.16 0.16 0.17 0.16 0.16 0.16 0.17 0.17 0.18 0.19 0.18 0.18 0.18 0.17 0.17 0.17 0.17 0.18 0.18 0.18 0.18 0.18 0.18 0.19 0.18 0.18 0.19 0.18 0.18 0.18 0.19 0.18 0.19 0.20 0.20 0.19 0.19 0.20 0.20 0.19 0.23 0.23 0.21 0.21 0.23 0.24 0.25 0.25 0.25
0.15 0.16 0.16 0.16 0.17 0.18 0.19 0.20 0.22 0.22 0.24 0.25 0.25 0.25 0.24 0.24 0.23 0.22 0.21 0.21 0.21 0.19 0.19 0.18 0.17 0.17 0.16 0.16 0.15 0.14 0.13 0.13 0.12 0.13 0.13 0.13 0.12 0.11 0.11 0.11 0.11 0.11 0.12 0.13 0.13 0.14 0.15 0.15 0.15 0.15 0.15 0.15 0.15 0.16 0.16 0.16 0.16 0.16 0.17 0.17 0.17 0.17 0.17 0.17 0.17 0.17 0.17 0.17 0.17 0.18 0.19 0.20 0.20 0.19 0.18 0.19 0.18 0.20 0.22 0.22 0.20 0.21 0.21 0.21 0.22
0.15 0.15 0.16 0.16 0.17 0.18 0.18 0.20 0.22 0.23 0.25 0.25 0.25 0.25 0.24 0.23 0.22 0.21 0.20 0.20 0.19 0.19 0.18 0.17 0.16 0.15 0.14 0.13 0.12 0.12 0.11 0.10 0.09 0.10 0.11 0.10 0.09 0.09 0.09 0.08 0.08 0.08 0.08 0.09 0.10 0.10 0.12 0.11 0.12 0.11 0.12 0.12 0.13 0.14 0.14 0.14 0.14 0.14 0.14 0.15 0.15 0.15 0.16 0.15 0.16 0.16 0.16 0.16 0.16 0.16 0.16 0.17 0.17 0.17 0.18 0.17 0.17 0.17 0.18 0.19 0.20 0.20 0.19 0.19 0.19
0.15 0.15 0.15 0.16 0.17 0.18 0.19 0.20 0.22 0.24 0.25 0.25 0.25 0.25 0.24 0.23 0.22 0.21 0.20 0.20 0.19 0.18 0.18 0.16 0.14 0.13 0.13 0.12 0.11 0.11 0.10 0.09 0.09 0.09 0.10 0.09 0.09 0.09 0.08 0.08 0.08 0.07 0.07 0.08 0.08 0.09 0.09 0.09 0.09 0.09 0.09 0.09 0.11 0.11 0.11 0.11 0.12 0.12 0.12 0.12 0.13 0.13 0.13 0.14 0.14 0.14 0.15 0.15 0.14 0.14 0.15 0.15 0.15 0.15 0.15 0.16 0.15 0.15 0.16 0.16 0.17 0.19 0.19 0.19 0.19
0.15 0.15 0.16 0.17 0.17 0.18 0.20 0.21 0.22 0.24 0.25 0.25 0.25 0.25 0.24 0.23 0.22 0.21 0.20 0.20 0.19 0.18 0.18 0.16 0.14 0.14 0.13 0.12 0.11 0.10 0.10 0.09 0.08 0.08 0.09 0.09 0.08 0.08 0.08 0.08 0.07 0.07 0.07 0.08 0.08 0.08 0.08 0.08 0.08 0.07 0.08 0.08 0.09 0.09 0.09 0.09 0.09 0.10 0.10 0.11 0.11 0.12 0.12 0.12 0.12 0.13 0.13 0.13 0.13 0.13 0.13 0.13 0.14 0.14 0.14 0.14 0.14 0.14 0.14 0.15 0.16 0.16 0.15 0.16 0.17
0.15 0.15 0.16 0.17 0.18 0.19 0.20 0.20 0.22 0.23 0.25 0.25 0.25 0.25 0.24 0.23 0.22 0.21 0.20 0.20 0.19 0.18 0.17 0.15 0.15 0.14 0.13 0.12 0.12 0.11 0.10 0.09 0.08 0.08 0.08 0.09 0.08 0.08 0.08 0.08 0.07 0.07 0.07 0.07 0.07 0.07 0.07 0.08 0.07 0.07 0.07 0.07 0.07 0.07 0.08 0.08 0.08 0.09 0.09 0.09 0.09 0.10 0.10 0.11 0.11 0.11 0.11 0.11 0.11 0.12 0.12 0.12 0.12 0.12 0.12 0.13 0.13 0.13 0.13 0.13 0.14 0.14 0.15 0.14 0.15
0.16 0.16 0.16 0.17 0.18 0.18 0.20 0.20 0.21 0.23 0.24 0.24 0.25 0.25 0.24 0.24 0.23 0.21 0.20 0.20 0.19 0.18 0.17 0.16 0.16 0.14 0.13 0.13 0.12 0.11 0.10 0.09 0.08 0.08 0.08 0.08 0.08 0.08 0.08 0.08 0.07 0.07 0.07 0.07 0.07 0.07 0.07 0.07 0.07 0.07 0.07 0.07 0.07 0.07 0.07 0.07 0.07 0.08 0.08 0.08 0.08 0.09 0.09 0.09 0.09 0.10 0.10 0.10 0.11 0.11 0.11 0.11 0.11 0.11 0.12 0.13 0.12 0.12 0.12 0.12 0.12 0.13 0.13 0.13 0.14
0.16 0.16 0.16 0.17 0.17 0.17 0.18 0.19 0.21 0.22 0.23 0.24 0.25 0.25 0.25 0.24 0.23 0.21 0.20 0.20 0.19 0.18 0.17 0.17 0.16 0.14 0.13 0.13 0.12 0.11 0.10 0.09 0.09 0.08 0.08 0.08 0.08 0.08 0.08 0.08 0.08 0.07 0.07 0.07 0.07 0.07 0.07 0.07 0.07 0.07 0.07 0.07 0.07 0.07 0.07 0.07 0.07 0.07 0.07 0.07 0.08 0.08 0.08 0.08 0.08 0.08 0.09 0.09 0.09 0.10 0.10 0.10 0.10 0.11 0.11 0.11 0.11 0.12 0.11 0.11 0.11 0.12 0.11 0.11 0.12
0.16 0.16 0.16 0.17 0.17 0.18 0.19 0.20 0.21 0.22 0.23 0.25 0.25 0.25 0.25 0.24 0.24 0.22 0.21 0.20 0.19 0.19 0.18 0.17 0.16 0.14 0.14 0.13 0.13 0.12 0.11 0.10 0.09 0.09 0.08 0.08 0.09 0.09 0.08 0.08 0.08 0.07 0.07 0.07 0.07 0.07 0.07 0.07 0.07 0.07 0.07 0.07 0.07 0.07 0.07 0.07 0.07 0.07 0.07 0.07 0.07 0.07 0.08 0.08 0.08 0.08 0.08 0.08 0.09 0.09 0.09 0.09 0.09 0.10 0.10 0.10 0.10 0.10 0.10 0.10 0.10 0.10 0.10 0.10 0.11
0.17 0.17 0.17 0.17 0.17 0.18 0.19 0.20 0.21 0.22 0.24 0.25 0.25 0.25 0.25 0.24 0.24 0.23 0.21 0.20 0.19 0.19 0.19 0.17 0.15 0.15 0.14 0.14 0.13 0.13 0.12 0.11 0.10 0.09 0.09 0.09 0.09 0.09 0.09 0.08 0.08 0.08 0.07 0.07 0.07 0.07 0.07 0.07 0.07 0.07 0.07 0.07 0.07 0.07 0.07 0.07 0.07 0.07 0.07 0.07 0.07 0.07 0.07 0.07 0.07 0.07 0.07 0.08 0.08 0.08 0.08 0.09 0.09 0.09 0.09 0.10 0.10 0.10 0.10 0.10 0.10 0.09 0.09 0.10 0.09
0.17 0.17 0.17 0.18 0.18 0.19 0.20 0.20 0.21 0.23 0.24 0.25 0.26 0.26 0.25 0.25 0.24 0.23 0.22 0.21 0.20 0.19 0.17 0.16 0.16 0.16 0.15 0.14 0.14 0.13 0.13 0.12 0.10 0.09 0.09 0.09 0.09 0.09 0.09 0.09 0.08 0.08 0.07 0.07 0.07 0.07 0.07 0.07 0.07 0.07 0.07 0.07 0.07 0.07 0.07 0.07 0.07 0.07 0.07 0.07 0.07 0.07 0.07 0.07 0.07 0.07 0.07 0.07 0.07 0.08 0.08 0.08 0.08 0.09 0.09 0.09 0.10 0.10 0.10 0.10 0.10 0.10 0.09 0.08 0.09
0.17 0.17 0.17 0.18 0.19 0.20 0.21 0.21 0.22 0.23 0.24 0.24 0.25 0.26 0.26 0.26 0.25 0.24 0.22 0.21 0.19 0.18 0.17 0.17 0.17 0.16 0.15 0.15 0.14 0.14 0.13 0.12 0.11 0.09 0.09 0.09 0.08 0.09 0.09 0.09 0.08 0.08 0.07 0.07 0.07 0.07 0.07 0.07 0.07 0.07 0.07 0.07 0.07 0.07 0.07 0.07 0.07 0.07 0.07 0.07 0.06 0.07 0.07 0.07 0.07 0.07 0.07 0.07 0.07 0.07 0.08 0.08 0.08 0.08 0.09 0.09 0.09 0.09 0.09 0.09 0.09 0.09 0.09 0.08 0.08
0.17 0.18 0.19 0.20 0.20 0.21 0.22 0.23 0.23 0.24 0.25 0.26 0.26 0.27 0.27 0.26 0.25 0.23 0.21 0.20 0.19 0.19 0.18 0.17 0.17 0.16 0.16 0.15 0.15 0.15 0.14 0.13 0.12 0.10 0.09 0.09 0.09 0.08 0.08 0.08 0.08 0.08 0.07 0.07 0.07 0.07 0.07 0.07 0.07 0.07 0.07 0.07 0.07 0.07 0.07 0.07 0.07 0.06 0.06 0.07 0.07 0.07 0.07 0.07 0.07 0.07 0.07 0.07 0.07 0.07 0.07 0.07 0.07 0.08 0.08 0.08 0.09 0.09 0.09 0.09 0.09 0.09 0.09 0.08 0.08
0.17 0.17 0.18 0.20 0.20 0.21 0.22 0.22 0.24 0.25 0.26 0.27 0.28 0.28 0.27 0.26 0.25 0.23 0.22 0.21 0.21 0.20 0.19 0.18 0.18 0.17 0.16 0.16 0.16 0.15 0.15 0.14 0.12 0.10 0.09 0.09 0.09 0.08 0.08 0.08 0.08 0.08 0.07 0.07 0.07 0.07 0.07 0.07 0.07 0.07 0.07 0.07 0.07 0.07 0.07 0.07 0.07 0.06 0.06 0.06 0.07 0.07 0.07 0.06 0.07 0.07 0.07 0.07 0.07 0.07 0.07 0.07 0.07 0.07 0.07 0.08 0.08 0.08 0.08 0.09 0.09 0.09 0.09 0.09 0.08
0.17 0.18 0.19 0.20 0.21 0.22 0.22 0.23 0.24 0.25 0.26 0.27 0.28 0.28 0.27 0.26 0.26 0.25 0.23 0.22 0.21 0.20 0.19 0.18 0.18 0.17 0.17 0.16 0.16 0.16 0.15 0.14 0.12 0.10 0.09 0.09 0.09 0.08 0.08 0.08 0.08 0.08 0.08 0.07 0.07 0.07 0.07 0.07 0.07 0.07 0.07 0.07 0.07 0.07 0.07 0.07 0.07 0.07 0.07 0.07 0.07 0.07 0.07 0.07 0.07 0.07 0.07 0.07 0.07 0.07 0.07 0.07 0.07 0.07 0.07 0.07 0.07 0.08 0.08 0.08 0.08 0.09 0.09 0.09 0.09
0.17 0.18 0.19 0.20 0.21 0.22 0.23 0.24 0.25 0.26 0.28 0.28 0.28 0.27 0.27 0.27 0.26 0.25 0.24 0.23 0.21 0.20 0.20 0.19 0.18 0.18 0.17 0.17 0.16 0.16 0.15 0.14 0.13 0.11 0.09 0.09 0.08 0.08 0.08 0.08 0.08 0.08 0.08 0.07 0.07 0.07 0.07 0.07 0.07 0.07 0.07 0.07 0.07 0.07 0.07 0.07 0.07 0.07 0.07 0.07 0.07 0.07 0.07 0.07 0.07 0.07 0.07 0.07 0.07 0.07 0.07 0.07 0.07 0.07 0.07 0.07 0.08 0.08 0.08 0.08 0.08 0.08 0.08 0.08 0.08
0.18 0.19 0.20 0.21 0.21 0.22 0.23 0.24 0.25 0.26 0.26 0.27 0.27 0.27 0.27 0.26 0.26 0.25 0.24 0.23 0.21 0.20 0.20 0.19 0.19 0.18 0.17 0.17 0.17 0.16 0.16 0.15 0.13 0.11 0.09 0.09 0.08 0.08 0.08 0.08 0.08 0.08 0.08 0.07 0.07 0.07 0.07 0.07 0.07 0.07 0.07 0.07 0.07 0.07 0.07 0.07 0.07 0.07 0.07 0.07 0.07 0.07 0.07 0.07 0.07 0.07 0.07 0.07 0.07 0.07 0.07 0.07 0.07 0.07 0.07 0.07 0.07 0.07 0.08 0.08 0.08 0.08 0.08 0.08 0.09
0.18 0.19 0.21 0.21 0.22 0.22 0.23 0.23 0.24 0.25 0.26 0.27 0.28 0.27 0.27 0.26 0.26 0.25 0.24 0.23 0.22 0.21 0.20 0.20 0.19 0.18 0.18 0.17 0.17 0.16 0.16 0.15 0.13 0.11 0.09 0.09 0.08 0.08 0.08 0.08 0.08 0.08 0.08 0.08 0.07 0.07 0.07 0.07 0.07 0.07 0.07 0.07 0.07 0.07 0.07 0.07 0.07 0.07 0.07 0.07 0.07 0.07 0.07 0.07 0.07 0.07 0.07 0.07 0.07 0.07 0.07 0.07 0.07 0.07 0.07 0.07 0.07 0.08 0.08 0.08 0.08 0.08 0.08 0.08 0.09
0.19 0.21 0.21 0.22 0.22 0.23 0.23 0.23 0.23 0.24 0.25 0.26 0.27 0.27 0.27 0.26 0.26 0.25 0.23 0.22 0.21 0.21 0.20 0.20 0.19 0.18 0.18 0.18 0.17 0.16 0.16 0.15 0.13 0.11 0.09 0.09 0.08 0.08 0.08 0.08 0.08 0.08 0.08 0.07 0.07 0.07 0.07 0.07 0.07 0.07 0.07 0.07 0.07 0.07 0.07 0.07 0.07 0.07 0.07 0.07 0.07 0.07 0.07 0.07 0.07 0.07 0.07 0.07 0.07 0.07 0.07 0.07 0.07 0.07 0.07 0.07 0.07 0.07 0.07 0.07 0.07 0.08 0.08 0.08 0.09
0.19 0.20 0.21 0.22 0.22 0.22 0.23 0.24 0.24 0.25 0.26 0.28 0.28 0.27 0.26 0.26 0.25 0.24 0.23 0.22 0.21 0.21 0.20 0.20 0.19 0.18 0.18 0.17 0.17 0.16 0.15 0.15 0.13 0.11 0.09 0.08 0.08 0.08 0.08 0.08 0.08 0.08 0.08 0.07 0.07 0.07 0.07 0.07 0.07 0.07 0.07 0.07 0.07 0.07 0.07 0.07 0.07 0.07 0.07 0.07 0.07 0.07 0.07 0.07 0.07 0.07 0.07 0.07 0.07 0.07 0.07 0.07 0.07 0.07 0.07 0.07 0.07 0.07 0.07 0.07 0.07 0.08 0.08 0.08 0.09
0.19 0.20 0.20 0.21 0.21 0.22 0.23 0.24 0.25 0.25 0.26 0.26 0.26 0.26 0.26 0.25 0.24 0.24 0.23 0.22 0.21 0.21 0.20 0.19 0.18 0.18 0.17 0.17 0.16 0.16 0.15 0.14 0.13 0.11 0.09 0.08 0.08 0.08 0.08 0.08 0.08 0.07 0.07 0.07 0.07 0.07 0.07 0.07 0.07 0.07 0.07 0.07 0.07 0.07 0.07 0.07 0.07 0.07 0.07 0.07 0.07 0.07 0.07 0.07 0.07 0.07 0.07 0.07 0.07 0.07 0.07 0.07 0.07 0.07 0.06 0.07 0.07 0.07 0.07 0.07 0.07 0.08 0.08 0.08 0.08
0.19 0.20 0.20 0.21 0.21 0.21 0.22 0.23 0.24 0.24 0.25 0.25 0.24 0.24 0.24 0.23 0.23 0.23 0.22 0.22 0.21 0.20 0.20 0.19 0.18 0.18 0.17 0.16 0.16 0.15 0.15 0.14 0.13 0.11 0.09 0.08 0.08 0.08 0.08 0.08 0.08 0.08 0.07 0.07 0.07 0.07 0.07 0.07 0.07 0.07 0.07 0.07 0.07 0.07 0.07 0.07 0.07 0.07 0.07 0.07 0.07 0.07 0.07 0.07 0.07 0.07 0.07 0.07 0.07 0.07 0.07 0.07 0.07 0.07 0.07 0.07 0.07 0.07 0.07 0.07 0.07 0.08 0.08 0.08 0.08
0.20 0.20 0.20 0.20 0.21 0.21 0.22 0.23 0.24 0.24 0.24 0.23 0.24 0.23 0.23 0.22 0.22 0.22 0.21 0.21 0.20 0.19 0.19 0.18 0.18 0.17 0.16 0.16 0.16 0.15 0.14 0.14 0.12 0.10 0.09 0.08 0.08 0.08 0.08 0.08 0.08 0.08 0.07 0.07 0.07 0.07 0.07 0.07 0.07 0.07 0.07 0.07 0.07 0.07 0.07 0.07 0.07 0.07 0.07 0.07 0.07 0.07 0.07 0.07 0.07 0.07 0.07 0.07 0.08 0.08 0.07 0.07 0.07 0.07 0.07 0.07 0.07 0.07 0.07 0.07 0.08 0.08 0.08 0.08 0.08
0.19 0.19 0.20 0.21 0.21 0.22 0.23 0.23 0.23 0.23 0.23 0.22 0.22 0.23 0.22 0.22 0.22 0.21 0.21 0.20 0.19 0.19 0.18 0.18 0.17 0.16 0.16 0.16 0.15 0.14 0.14 0.13 0.11 0.10 0.08 0.08 0.08 0.08 0.08 0.08 0.08 0.08 0.08 0.08 0.08 0.08 0.07 0.07 0.07 0.07 0.07 0.07 0.07 0.07 0.07 0.07 0.07 0.07 0.07 0.07 0.07 0.07 0.07 0.07 0.07 0.08 0.08 0.08 0.08 0.08 0.08 0.08 0.08 0.08 0.08 0.08 0.08 0.08 0.08 0.07 0.08 0.08 0.08 0.08 0.08
0.19 0.20 0.21 0.22 0.23 0.23 0.23 0.23 0.23 0.23 0.23 0.22 0.22 0.22 0.22 0.21 0.21 0.20 0.20 0.19 0.19 0.18 0.18 0.17 0.16 0.16 0.16 0.15 0.15 0.14 0.13 0.12 0.10 0.09 0.08 0.08 0.08 0.08 0.08 0.08 0.08 0.08 0.08 0.08 0.08 0.08 0.07 0.07 0.07 0.07 0.07 0.07 0.07 0.07 0.07 0.07 0.08 0.08 0.08 0.08 0.08 0.08 0.08 0.08 0.08 0.08 0.08 0.08 0.08 0.08 0.08 0.08 0.08 0.08 0.08 0.08 0.08 0.08 0.09 0.09 0.08 0.08 0.08 0.08 0.08
0.21 0.22 0.22 0.23 0.23 0.24 0.24 0.24 0.24 0.24 0.23 0.23 0.22 0.22 0.21 0.20 0.20 0.20 0.19 0.19 0.18 0.18 0.17 0.17 0.16 0.16 0.15 0.15 0.14 0.13 0.12 0.11 0.10 0.09 0.08 0.08 0.08 0.08 0.08 0.08 0.08 0.08 0.08 0.08 0.08 0.07 0.07 0.07 0.07 0.07 0.07 0.07 0.07 0.07 0.07 0.08 0.08 0.09 0.09 0.09 0.09 0.09 0.09 0.09 0.09 0.08 0.08 0.08 0.08 0.08 0.08 0.08 0.08 0.08 0.08 0.08 0.08 0.09 0.09 0.09 0.10 0.10 0.10 0.09 0.09
0.22 0.23 0.24 0.25 0.25 0.24 0.24 0.23 0.23 0.23 0.23 0.22 0.21 0.21 0.20 0.20 0.20 0.19 0.19 0.18 0.18 0.17 0.17 0.16 0.16 0.15 0.14 0.14 0.13 0.12 0.12 0.10 0.09 0.08 0.08 0.08 0.08 0.08 0.08 0.08 0.08 0.08 0.08 0.08 0.07 0.07 0.07 0.07 0.07 0.07 0.07 0.07 0.07 0.07 0.07 0.08 0.09 0.09 0.09 0.09 0.09 0.09 0.09 0.09 0.09 0.08 0.08 0.08 0.08 0.08 0.08 0.08 0.08 0.08 0.08 0.08 0.08 0.09 0.09 0.09 0.09 0.10 0.10 0.10 0.10
0.24 0.25 0.25 0.25 0.24 0.24 0.24 0.23 0.23 0.22 0.22 0.21 0.21 0.20 0.19 0.19 0.19 0.18 0.18 0.17 0.17 0.16 0.16 0.15 0.15 0.14 0.13 0.13 0.12 0.12 0.10 0.09 0.08 0.08 0.08 0.08 0.08 0.08 0.08 0.08 0.08 0.08 0.08 0.07 0.07 0.07 0.07 0.07 0.07 0.07 0.07 0.07 0.07 0.07 0.07 0.08 0.08 0.09 0.09 0.09 0.09 0.09 0.09 0.09 0.09 0.08 0.08 0.08 0.08 0.07 0.07 0.07 0.08 0.08 0.08 0.08 0.08 0.08 0.08 0.08 0.08 0.08 0.09 0.09 0.10
0.25 0.25 0.25 0.24 0.24 0.23 0.23 0.22 0.21 0.21 0.21 0.20 0.20 0.19 0.19 0.18 0.18 0.18 0.17 0.17 0.16 0.16 0.15 0.15 0.14 0.13 0.12 0.12 0.12 0.11 0.09 0.09 0.08 0.08 0.08 0.08 0.08 0.08 0.08 0.08 0.08 0.08 0.07 0.07 0.07 0.07 0.07 0.07 0.07 0.07 0.07 0.07 0.06 0.07 0.07 0.08 0.08 0.09 0.09 0.09 0.09 0.09 0.09 0.08 0.08 0.08 0.08 0.08 0.07 0.07 0.07 0.07 0.07 0.08 0.08 0.08 0.08 0.08 0.08 0.08 0.08 0.08 0.08 0.08 0.09
0.24 0.24 0.23 0.23 0.22 0.21 0.20 0.19 0.19 0.19 0.19 0.18 0.18 0.18 0.18 0.17 0.17 0.17 0.16 0.16 0.15 0.15 0.14 0.13 0.13 0.12 0.12 0.11 0.11 0.09 0.09 0.08 0.08 0.08 0.08 0.08 0.08 0.08 0.08 0.08 0.08 0.07 0.07 0.07 0.07 0.07 0.07 0.07 0.07 0.07 0.07 0.06 0.06 0.07 0.07 0.08 0.08 0.08 0.09 0.09 0.09 0.09 0.08 0.08 0.08 0.08 0.08 0.07 0.07 0.07 0.07 0.07 0.07 0.07 0.08 0.08 0.08 0.08 0.08 0.08 0.08 0.08 0.08 0.09 0.09
0.23 0.22 0.21 0.21 0.20 0.18 0.18 0.17 0.18 0.17 0.16 0.17 0.17 0.17 0.17 0.16 0.16 0.16 0.15 0.15 0.14 0.14 0.13 0.12 0.12 0.11 0.11 0.10 0.09 0.09 0.08 0.08 0.08 0.08 0.08 0.08 0.08 0.08 0.08 0.08 0.08 0.07 0.07 0.07 0.07 0.07 0.07 0.07 0.07 0.07 0.06 0.06 0.06 0.07 0.07 0.08 0.08 0.08 0.08 0.09 0.08 0.08 0.07 0.07 0.07 0.07 0.07 0.07 0.08 0.08 0.07 0.07 0.07 0.08 0.08 0.08 0.08 0.08 0.08 0.08 0.09 0.09 0.09 0.09 0.10
0.22 0.21 0.19 0.19 0.18 0.17 0.16 0.16 0.16 0.16 0.16 0.16 0.16 0.16 0.16 0.15 0.15 0.15 0.14 0.14 0.13 0.12 0.12 0.12 0.11 0.11 0.10 0.09 0.09 0.08 0.08 0.08 0.08 0.08 0.08 0.08 0.08 0.08 0.08 0.08 0.07 0.07 0.07 0.07 0.07 0.07 0.07 0.07 0.07 0.06 0.06 0.06 0.06 0.06 0.07 0.07 0.08 0.08 0.08 0.08 0.08 0.07 0.07 0.07 0.07 0.07 0.07 0.07 0.08 0.08 0.08 0.08 0.08 0.07 0.07 0.08 0.08 0.08 0.09 0.09 0.09 0.09 0.09 0.09 0.09
0.20 0.19 0.17 0.16 0.15 0.15 0.15 0.15 0.15 0.14 0.15 0.15 0.15 0.15 0.15 0.14 0.14 0.13 0.13 0.12 0.12 0.11 0.11 0.11 0.10 0.10 0.09 0.09 0.09 0.09 0.08 0.08 0.08 0.08 0.08 0.08 0.08 0.08 0.08 0.08 0.07 0.07 0.07 0.07 0.07 0.07 0.07 0.07 0.06 0.06 0.06 0.06 0.06 0.06 0.07 0.07 0.08 0.08 0.08 0.08 0.07 0.07 0.07 0.07 0.07 0.07 0.08 0.08 0.08 0.07 0.07 0.07 0.07 0.07 0.07 0.08 0.09 0.09 0.09 0.09 0.09 0.08 0.08 0.08 0.08
0.17 0.15 0.14 0.13 0.13 0.14 0.13 0.13 0.13 0.12 0.13 0.14 0.14 0.14 0.13 0.13 0.12 0.12 0.12 0.11 0.11 0.11 0.11 0.10 0.10 0.10 0.09 0.09 0.09 0.09 0.09 0.08 0.08 0.08 0.08 0.08 0.08 0.08 0.08 0.08 0.07 0.07 0.07 0.07 0.07 0.07 0.07 0.06 0.06 0.06 0.06 0.06 0.06 0.06 0.06 0.07 0.07 0.07 0.07 0.07 0.07 0.07 0.07 0.07 0.07 0.07 0.08 0.07 0.07 0.07 0.07 0.08 0.08 0.08 0.08 0.08 0.08 0.08 0.08 0.08 0.08 0.08 0.08 0.08 0.08
0.14 0.13 0.13 0.12 0.12 0.12 0.12 0.12 0.12 0.12 0.13 0.13 0.13 0.13 0.12 0.12 0.11 0.11 0.11 0.11 0.11 0.10 0.10 0.10 0.10 0.09 0.09 0.09 0.09 0.09 0.09 0.08 0.08 0.08 0.08 0.08 0.08 0.08 0.08 0.07 0.07 0.07 0.07 0.07 0.07 0.07 0.06 0.06 0.06 0.06 0.06 0.06 0.06 0.06 0.06 0.07 0.07 0.07 0.07 0.08 0.08 0.08 0.07 0.07 0.07 0.07 0.07 0.07 0.07 0.08 0.07 0.07 0.07 0.07 0.07 0.07 0.07 0.08 0.08 0.08 0.09 0.08 0.08 0.07 0.08
0.12 0.12 0.12 0.12 0.12 0.12 0.11 0.11 0.12 0.12 0.12 0.12 0.12 0.12 0.11 0.11 0.11 0.11 0.10 0.10 0.11 0.10 0.10 0.09 0.09 0.09 0.09 0.09 0.09 0.09 0.09 0.08 0.08 0.08 0.08 0.08 0.08 0.08 0.08 0.07 0.07 0.07 0.07 0.07 0.06 0.06 0.06 0.06 0.06 0.06 0.06 0.06 0.06 0.06 0.06 0.06 0.07 0.07 0.07 0.08 0.08 0.08 0.08 0.07 0.07 0.07 0.07 0.07 0.07 0.07 0.07 0.06 0.06 0.07 0.07 0.07 0.07 0.08 0.08 0.09 0.09 0.08 0.08 0.09 0.09
0.12 0.12 0.12 0.11 0.11 0.10 0.10 0.10 0.11 0.11 0.11 0.12 0.12 0.11 0.11 0.10 0.10 0.10 0.10 0.11 0.10 0.10 0.09 0.09 0.09 0.09 0.09 0.09 0.09 0.09 0.09 0.08 0.08 0.08 0.08 0.08 0.08 0.08 0.08 0.07 0.07 0.07 0.07 0.06 0.06 0.06 0.06 0.06 0.06 0.06 0.06 0.06 0.06 0.06 0.06 0.06 0.07 0.07 0.07 0.08 0.08 0.08 0.08 0.08 0.07 0.07 0.07 0.07 0.07 0.06 0.06 0.06 0.06 0.06 0.07 0.07 0.08 0.09 0.09 0.09 0.08 0.09 0.09 0.09 0.09
0.11 0.11 0.11 0.10 0.09 0.09 0.09 0.09 0.10 0.11 0.11 0.11 0.11 0.10 0.10 0.10 0.10 0.10 0.10 0.10 0.10 0.09 0.09 0.09 0.09 0.09 0.09 0.09 0.09 0.09 0.08 0.08 0.08 0.08 0.08 0.08 0.08 0.07 0.07 0.07 0.07 0.07 0.06 0.06 0.06 0.06 0.06 0.06 0.06 0.06 0.06 0.06 0.06 0.06 0.06 0.06 0.06 0.07 0.07 0.07 0.08 0.08 0.08 0.08 0.08 0.07 0.07 0.07 0.07 0.06 0.06 0.06 0.06 0.07 0.07 0.08 0.09 0.09 0.08 0.08 0.08 0.08 0.08 0.08 0.08
0.11 0.10 0.10 0.09 0.09 0.09 0.09 0.09 0.10 0.10 0.10 0.10 0.10 0.10 0.09 0.09 0.09 0.10 0.10 0.10 0.09 0.09 0.09 0.09 0.09 0.09 0.09 0.09 0.09 0.08 0.08 0.08 0.08 0.08 0.08 0.07 0.07 0.07 0.07 0.07 0.07 0.06 0.06 0.06 0.06 0.06 0.06 0.05 0.05 0.05 0.05 0.06 0.06 0.06 0.06 0.06 0.06 0.06 0.07 0.07 0.07 0.08 0.08 0.08 0.08 0.07 0.07 0.06 0.06 0.06 0.06 0.07 0.07 0.08 0.08 0.08 0.08 0.08 0.07 0.07 0.07 0.07 0.07 0.07 0.06
0.09 0.09 0.09 0.09 0.09 0.09 0.08 0.09 0.09 0.09 0.09 0.10 0.09 0.09 0.09 0.09 0.09 0.09 0.09 0.09 0.09 0.09 0.09 0.09 0.08 0.08 0.08 0.08 0.08 0.08 0.08 0.08 0.08 0.08 0.07 0.07 0.07 0.07 0.07 0.07 0.06 0.06 0.06 0.06 0.06 0.06 0.05 0.05 0.05 0.05 0.05 0.05 0.06 0.06 0.06 0.06 0.06 0.06 0.07 0.07 0.07 0.07 0.07 0.07 0.06 0.06 0.06 0.06 0.06 0.07 0.07 0.07 0.08 0.07 0.07 0.07 0.06 0.06 0.06 0.06 0.06 0.06 0.06 0.06 0.06
0.09 0.09 0.08 0.08 0.08 0.08 0.08 0.08 0.09 0.09 0.09 0.09 0.09 0.09 0.08 0.08 0.09 0.09 0.09 0.09 0.09 0.09 0.08 0.08 0.08 0.08 0.08 0.08 0.08 0.08 0.08 0.08 0.08 0.08 0.07 0.07 0.07 0.07 0.07 0.06 0.06 0.06 0.06 0.06 0.05 0.05 0.05 0.05 0.05 0.05 0.05 0.05 0.06 0.06 0.06 0.06 0.06 0.06 0.06 0.06 0.07 0.07 0.07 0.06 0.06 0.06 0.06 0.07 0.07 0.07 0.06 0.06 0.06 0.07 0.06 0.06 0.06 0.06 0.06 0.06 0.06 0.06 0.06 0.06 0.06
0.08 0.08 0.08 0.08 0.08 0.08 0.08 0.08 0.08 0.08 0.08 0.08 0.08 0.08 0.08 0.09 0.08 0.09 0.09 0.09 0.09 0.08 0.08 0.08 0.08 0.08 0.08 0.08 0.08 0.08 0.08 0.08 0.07 0.07 0.07 0.07 0.07 0.07 0.07 0.06 0.06 0.06 0.06 0.06 0.05 0.05 0.05 0.05 0.05 0.05 0.05 0.06 0.06 0.06 0.06 0.06 0.06 0.06 0.06 0.06 0.06 0.06 0.06 0.06 0.06 0.06 0.06 0.06 0.06 0.06 0.07 0.07 0.07 0.07 0.06 0.06 0.06 0.06 0.05 0.06 0.06 0.06 0.06 0.06 0.06
0.08 0.08 0.08 0.08 0.08 0.07 0.07 0.07 0.07 0.08 0.08 0.08 0.08 0.08 0.08 0.08 0.09 0.09 0.09 0.09 0.08 0.08 0.08 0.08 0.08 0.08 0.08 0.08 0.07 0.07 0.07 0.07 0.07 0.07 0.07 0.07 0.07 0.07 0.06 0.06 0.06 0.06 0.06 0.05 0.05 0.05 0.05 0.05 0.05 0.05 0.06 0.06 0.06 0.06 0.06 0.06 0.06 0.06 0.06 0.06 0.06 0.06 0.06 0.06 0.06 0.07 0.07 0.07 0.07 0.07 0.07 0.07 0.06 0.06 0.06 0.05 0.05 0.05 0.05 0.05 0.05 0.06 0.06 0.06 0.06
0.07 0.08 0.07 0.07 0.07 0.07 0.07 0.07 0.07 0.07 0.07 0.07 0.08 0.08 0.08 0.08 0.08 0.08 0.08 0.08 0.08 0.08 0.08 0.08 0.08 0.07 0.07 0.07 0.07 0.07 0.07 0.07 0.07 0.07 0.07 0.07 0.06 0.06 0.06 0.06 0.06 0.06 0.06 0.06 0.06 0.06 0.06 0.06 0.06 0.06 0.06 0.05 0.05 0.05 0.06 0.06 0.06 0.06 0.07 0.06 0.06 0.06 0.07 0.07 0.07 0.07 0.07 0.07 0.07 0.07 0.06 0.06 0.06 0.05 0.05 0.05 0.05 0.05 0.05 0.05 0.05 0.05 0.06 0.06 0.06
0.07 0.07 0.07 0.07 0.07 0.07 0.07 0.07 0.07 0.07 0.07 0.07 0.07 0.07 0.08 0.08 0.08 0.08 0.08 0.08 0.08 0.07 0.07 0.07 0.07 0.07 0.07 0.07 0.07 0.07 0.07 0.07 0.07 0.07 0.06 0.07 0.07 0.07 0.07 0.06 0.06 0.07 0.07 0.07 0.07 0.06 0.07 0.07 0.07 0.06 0.06 0.06 0.06 0.06 0.07 0.07 0.07 0.07 0.07 0.07 0.07 0.07 0.07 0.07 0.07 0.07 0.07 0.06 0.06 0.06 0.06 0.05 0.05 0.05 0.05 0.05 0.05 0.05 0.05 0.05 0.05 0.05 0.05 0.06 0.06
0.07 0.07 0.06 0.07 0.07 0.07 0.07 0.06 0.07 0.07 0.07 0.07 0.07 0.07 0.07 0.08 0.08 0.08 0.08 0.08 0.07 0.07 0.07 0.07 0.07 0.07 0.07 0.07 0.07 0.07 0.07 0.07 0.07 0.06 0.06 0.06 0.06 0.06 0.07 0.07 0.07 0.07 0.07 0.07 0.08 0.08 0.08 0.08 0.07 0.07 0.07 0.07 0.07 0.07 0.07 0.07 0.07 0.07 0.08 0.08 0.07 0.07 0.07 0.07 0.07 0.07 0.06 0.06 0.06 0.05 0.05 0.05 0.05 0.05 0.05 0.05 0.05 0.05 0.05 0.05 0.05 0.05 0.05 0.05 0.06
Wind_Speed
25 25 26 26 26 27 27 28 28 29 30 31 31 32 33 34 35 36 37 38 38 39 40 41 41 42 42 43 44 44 45 46 46 47 47 47 47 47 48 48 48 48 48 48 48 48 47 47 48 48 48 49 49 49 49 49 50 50 50 50 51 51 51 51 52 52 52 52 53 53 53 53 52 52 52 51 50 50 49 49 50 50 49 50 50
25 25 26 26 26 27 27 28 28 29 29 30 31 32 34 35 36 36 37 38 39 40 41 41 42 42 43 43 44 45 45 46 47 47 47 47 47 47 48 48 48 48 48 48 48 48 47 47 48 48 48 48 48 48 49 49 49 50 50 50 50 51 51 51 52 52 52 52 53 53 53 52 52 51 51 50 49 49 49 49 49 48 48 49 49
25 26 26 26 27 27 28 28 29 29 30 30 31 32 33 35 36 37 37 38 39 40 41 42 42 43 44 44 45 45 46 46 47 47 48 48 48 48 48 49 49 49 49 49 49 48 48 48 48 49 49 48 48 48 48 48 48 49 49 49 50 50 50 51 51 51 51 52 52 52 51 51 50 50 49 49 49 50 50 49 48 47 47 48 48
25 26 26 26 27 28 28 28 29 29 30 31 31 32 33 34 35 36 37 37 38 39 40 41 42 43 44 45 46 46 47 47 48 48 48 48 49 49 49 50 50 50 50 50 50 50 50 50 50 50 50 50 49 49 49 49 49 49 49 49 49 49 49 50 50 50 50 50 50 50 50 50 49 48 48 49 49 49 49 48 48 48 48 48 48
25 26 26 26 27 27 28 28 28 29 30 31 31 32 33 33 34 35 36 36 37 38 39 40 41 42 43 43 45 45 46 47 48 49 49 50 50 50 51 51 51 51 51 51 51 51 51 51 51 51 51 51 51 50 50 50 50 50 50 50 49 49 50 50 49 49 50 50 50 49 49 49 49 49 50 50 49 49 50 50 49 49 49 49 49
25 25 26 26 26 27 27 28 28 29 30 30 31 31 32 33 33 34 35 35 36 37 38 38 39 40 41 42 43 44 45 46 47 48 49 50 51 51 51 51 52 52 52 52 52 52 52 52 52 52 52 52 52 51 51 51 51 51 51 51 50 50 50 50 50 50 50 50 50 50 50 50 51 50 50 50 50 50 50 50 50 50 50 50 50
25 25 26 26 26 27 27 28 28 29 30 30 31 31 32 33 33 34 34 35 36 36 37 38 39 40 41 42 43 44 45 46 46 47 48 48 49 49 50 50 51 51 51 52 52 52 52 52 52 52 52 52 52 52 52 52 52 52 52 52 52 52 51 51 51 51 51 51 51 51 52 52 52 52 51 51 52 51 50 50 51 52 52 52 52
24 25 25 26 26 26 27 28 28 29 30 30 31 31 32 32 33 34 34 35 36 36 37 38 39 40 41 42 43 44 44 45 45 45 46 46 46 47 47 48 49 49 50 50 51 51 51 51 51 51 52 52 52 52 53 53 53 53 53 53 53 53 52 53 53 52 52 52 52 52 53 53 53 54 53 53 53 53 53 52 52 52 52 53 53
23 24 25 26 26 26 27 28 28 29 30 30 31 31 32 32 33 34 34 35 36 37 38 39 39 40 41 41 42 43 43 44 44 44 45 45 46 46 46 47 47 48 48 49 49 49 50 50 50 51 51 51 52 52 52 53 53 53 53 53 53 53 53 53 53 53 53 53 53 53 53 53 54 54 54 54 54 55 55 53 52 52 52 53 53
24 25 26 26 27 27 28 28 29 30 31 31 32 32 33 33 34 34 35 36 36 37 38 39 40 40 40 41 42 43 43 43 43 44 44 44 45 45 46 46 46 47 47 47 47 48 48 49 49 49 50 50 51 51 51 52 52 53 53 53 53 53 53 53 53 53 53 53 53 53 53 53 53 53 54 54 55 55 56 55 54 53 53 53 53
25 26 27 28 28 28 29 30 31 32 32 33 33 34 34 35 35 35 36 36 37 38 38 39 40 40 41 41 42 43 43 43 43 43 43 43 44 44 44 45 45 46 46 46 47 47 47 47 48 48 49 49 50 50 51 51 51 52 52 53 53 53 53 53 54 54 54 54 54 54 54 53 53 54 54 54 55 55 56 57 56 56 56 56 54
26 27 28 29 29 29 30 31 32 33 34 35 35 36 36 36 37 37 37 38 38 38 39 40 41 41 41 42 42 43 43 43 43 43 43 43 43 43 44 44 45 45 45 45 46 46 46 46 47 47 47 48 48 49 49 50 50 51 51 52 52 53 53 53 54 54 54 54 54 54 54 54 54 54 54 55 55 56 57 57 57 57 57 57 56
27 28 30 30 31 31 32 33 34 35 36 36 36 37 37 38 38 38 39 39 39 39 40 41 41 42 42 43 43 43 43 43 43 43 43 43 43 43 43 44 44 44 44 45 45 45 45 45 46 46 46 47 47 48 48 48 49 49 50 51 51 52 52 53 53 54 54 54 54 54 55 55 55 55 55 55 56 56 57 58 58 57 58 58 57
29 30 31 32 33 34 34 35 36 36 37 37 38 38 39 39 39 40 40 40 40 41 41 42 42 43 43 43 43 44 44 44 44 44 44 43 43 43 43 43 43 44 44 44 44 44 44 45 45 45 45 46 46 46 47 47 48 48 49 49 50 50 51 52 53 53 54 54 54 55 55 55 55 55 56 56 56 56 57 57 57 58 58 59 58
31 32 33 34 35 35 36 37 37 38 39 39 39 39 40 40 41 41 41 41 41 42 42 43 43 44 44 44 44 44 44 44 44 44 44 44 44 43 43 43 43 43 43 43 43 43 43 43 44 44 44 45 45 45 45 46 46 47 47 48 48 49 50 50 51 52 53 53 54 54 55 55 55 55 56 56 56 56 57 57 57 57 58 58 58
33 34 35 36 37 37 38 38 39 39 40 41 41 40 41 42 42 42 42 42 42 43 43 43 44 44 45 45 45 45 45 45 45 45 45 44 44 44 44 44 43 43 43 43 43 42 43 43 43 43 43 44 44 44 45 45 45 46 46 46 47 48 48 49 49 50 51 52 52 53 54 54 55 55 55 56 56 56 57 57 57 57 58 58 58
35 36 37 38 39 39 40 40 40 41 41 42 42 42 42 43 43 43 43 43 43 43 43 44 45 45 45 46 46 46 46 46 45 45 45 45 44 44 44 44 43 43 43 42 42 42 42 42 42 42 43 43 43 44 44 44 45 45 45 46 46 46 47 47 48 48 49 50 51 51 52 53 54 54 55 55 56 56 57 57 58 58 58 58 58
37 38 39 40 40 41 42 42 42 42 43 43 43 44 44 44 43 44 44 44 44 44 44 45 45 46 46 46 46 47 47 47 46 46 45 45 44 44 44 44 43 43 43 42 42 42 42 42 42 42 42 42 43 43 43 44 44 44 45 45 45 46 46 46 47 47 48 48 49 50 50 51 52 53 54 54 55 56 56 57 57 58 58 59 59
39 40 40 41 42 43 43 44 44 44 45 45 45 45 45 45 45 45 45 45 45 45 45 46 46 47 47 47 47 47 47 47 47 46 45 45 45 44 44 44 43 43 43 42 42 42 42 42 42 42 42 42 42 42 43 43 43 43 44 44 45 45 45 45 46 46 47 47 48 48 49 49 50 51 52 53 53 54 55 56 56 57 58 59 59
40 41 42 42 43 45 45 46 46 46 47 47 47 47 47 46 46 46 46 46 46 46 46 46 47 47 47 48 48 48 48 48 47 46 46 45 45 45 44 44 43 43 43 42 42 42 42 42 42 42 42 42 42 42 42 42 42 42 43 43 43 44 44 44 45 45 45 46 47 47 48 48 49 49 50 51 52 52 53 54 55 56 57 58 58
42 42 43 44 45 46 47 47 48 48 49 49 48 48 48 48 48 48 48 48 47 47 47 48 48 48 48 48 48 48 48 48 47 47 46 46 45 45 44 44 43 43 43 42 42 42 42 42 41 41 41 41 41 41 41 41 41 42 42 42 42 43 43 44 44 44 45 45 46 46 47 47 47 48 49 49 50 51 51 52 53 54 55 56 57
43 44 45 45 46 47 48 48 49 49 50 50 50 50 50 50 49 49 49 49 49 49 49 49 49 49 49 49 49 49 49 48 48 47 47 46 45 45 44 44 43 43 42 42 42 42 41 41 41 41 41 41 40 40 40 40 41 41 41 41 42 42 43 43 43 44 44 44 45 45 46 46 47 47 48 48 49 49 50 51 51 52 53 54 55
45 45 46 47 48 48 49 50 50 51 51 52 52 52 52 51 51 50 50 50 50 50 50 50 50 50 50 50 50 49 49 49 48 47 47 46 45 45 44 44 43 43 42 42 42 41 41 41 41 41 40 40 40 40 40 40 40 40 41 41 41 41 42 42 43 43 43 44 44 45 45 46 46 47 47 48 48 49 49 50 50 51 52 53 54
46 46 47 47 49 50 51 51 52 53 53 53 53 53 53 52 52 51 51 51 51 51 51 51 51 51 50 50 50 50 50 49 48 47 47 46 45 45 44 43 43 42 42 42 41 41 41 41 40 40 40 40 40 40 40 40 40 40 40 40 41 41 41 42 42 42 43 43 44 44 44 45 45 46 47 47 47 48 49 49 50 50 51 52 52
47 47 48 49 50 51 52 53 53 54 54 54 54 54 54 54 53 53 53 52 52 52 52 52 51 51 51 51 51 50 50 50 49 48 47 46 45 44 44 43 42 42 42 41 41 41 40 40 40 40 40 40 40 40 40 40 40 40 40 40 40 41 41 41 42 42 42 43 43 43 44 44 45 45 46 46 47 48 48 48 49 50 50 51 52
47 48 49 50 51 52 53 53 54 54 54 54 55 55 55 55 55 54 54 53 53 52 52 52 52 52 51 51 51 51 50 49 48 47 46 45 44 44 43 43 42 42 41 41 41 40 40 40 40 40 40 40 40 40 40 40 40 40 40 40 40 40 41 41 41 42 42 42 43 43 44 44 44 45 46 46 47 47 48 48 49 49 50 50 51
48 49 50 51 52 52 53 54 54 54 55 55 56 56 56 56 56 55 55 54 54 53 53 53 52 52 52 51 51 51 50 49 48 47 46 45 44 43 42 42 42 41 41 40 40 40 40 40 40 40 40 40 40 40 40 40 40 40 40 40 40 40 41 41 41 41 41 42 42 43 43 44 44 45 45 46 46 47 48 48 49 49 49 50 51
50 50 51 52 52 53 54 55 56 56 57 57 57 57 57 57 56 55 55 54 54 53 53 52 52 52 51 50 50 50 50 48 47 46 45 44 43 42 42 41 41 41 40 40 40 40 40 40 40 40 40 40 40 40 40 40 40 40 40 40 40 40 40 40 41 41 41 42 42 42 43 43 44 45 45 46 46 47 47 48 49 49 49 50 50
51 51 52 53 53 54 55 57 58 59 59 60 60 59 58 57 56 55 54 54 53 52 52 52 51 51 50 50 50 50 49 47 46 45 43 42 42 41 41 41 41 40 40 40 40 39 39 39 40 40 39 39 39 39 39 40 40 40 40 40 40 40 40 41 41 41 41 42 42 42 43 44 44 45 46 46 47 47 48 48 48 48 49 50 50
52 52 53 54 55 56 57 59 60 61 62 63 62 61 59 57 56 54 53 52 52 51 51 51 51 50 49 49 49 50 48 46 44 43 42 41 41 41 40 40 40 40 39 39 39 39 39 39 39 39 39 39 39 39 40 40 41 41 40 40 41 41 41 41 41 41 42 42 42 43 43 44 45 46 46 47 48 48 49 49 49 49 49 49 50
53 54 55 56 57 58 60 61 63 65 66 65 64 61 58 56 54 53 52 51 50 50 49 49 49 48 48 48 49 49 46 44 42 41 41 41 40 40 40 39 39 39 39 39 39 39 39 39 39 39 39 39 39 39 40 41 41 41 41 41 41 41 41 41 42 42 42 42 43 43 43 44 45 46 46 47 48 48 49 49 50 50 50 51 51
54 55 56 58 59 61 63 65 67 68 68 66 64 60 57 55 53 51 50 49 48 48 48 48 47 47 47 48 48 47 44 42 40 40 40 39 39 39 39 39 39 38 38 38 38 38 39 38 38 39 39 39 39 39 40 41 41 41 41 41 41 41 41 42 42 42 43 43 43 43 44 44 45 46 46 46 47 48 48 49 50 51 51 52 52
55 57 58 60 62 64 66 68 69 68 68 66 62 58 55 53 51 49 48 47 46 46 46 46 47 47 47 47 47 44 41 39 39 38 38 38 38 38 38 38 38 38 38 38 38 38 38 38 38 38 38 38 38 39 40 41 41 41 41 41 41 41 42 42 42 43 43 43 44 44 44 44 44 45 45 45 46 47 48 49 50 50 51 51 52
57 59 61 63 65 67 68 69 69 68 67 64 60 56 53 51 48 47 46 45 45 45 45 46 45 46 46 46 44 41 38 38 37 37 37 37 37 37 37 37 37 37 37 37 38 38 38 38 38 38 38 38 38 39 40 40 41 41 41 41 41 41 42 42 42 43 43 43 44 44 44 44 44 44 44 44 45 46 46 47 48 48 49 50 51
60 61 63 65 67 68 69 69 69 67 65 62 59 55 52 49 47 45 44 44 44 44 44 44 44 45 45 43 40 38 36 36 35 35 35 36 36 36 36 36 36 36 37 37 37 37 37 37 37 38 38 38 38 39 40 40 41 41 41 41 41 41 42 42 42 43 43 43 43 43 43 43 43 43 43 43 44 44 45 45 46 47 47 48 49
62 63 65 66 68 69 70 69 68 66 64 60 56 52 49 46 45 44 43 43 43 43 43 43 44 44 42 39 37 35 35 34 34 34 35 35 35 35 35 36 36 36 36 36 36 37 37 37 37 37 38 38 38 39 40 40 40 41 41 41 41 41 42 42 42 42 42 42 42 42 42 42 42 41 42 43 43 43 43 44 45 45 45 46 46
63 64 66 68 69 69 69 68 66 63 60 56 52 49 46 44 43 43 43 43 43 43 43 43 42 40 37 35 34 33 33 33 33 33 34 34 34 34 35 35 35 35 35 36 36 36 36 37 37 37 37 37 37 38 39 40 40 40 41 41 41 41 41 41 41 41 41 40 40 40 41 40 40 40 40 41 42 41 41 42 43 43 44 44 44
64 65 67 68 68 68 67 65 63 61 57 53 50 48 46 45 44 44 44 43 43 43 42 41 38 35 33 33 32 32 32 32 32 33 33 33 34 34 34 34 34 35 35 35 35 36 36 36 36 36 37 37 37 38 39 39 39 40 40 40 40 40 40 40 40 40 39 39 39 40 40 39 38 38 39 40 40 39 40 40 41 42 43 43 43
64 66 67 67 67 66 64 63 61 58 55 52 49 48 46 46 45 43 43 42 41 40 38 36 33 32 31 31 31 31 31 31 31 32 32 33 33 33 33 33 33 34 34 34 35 35 35 35 36 36 36 37 37 37 38 39 39 39 39 39 39 39 39 39 39 38 38 38 38 38 37 37 37 37 38 39 39 39 39 39 40 41 41 41 41
65 65 66 66 65 63 62 61 59 56 54 51 49 47 46 45 42 40 39 38 37 35 33 31 30 30 29 29 29 30 30 30 31 31 31 31 32 32 32 32 33 33 33 34 34 34 35 35 35 35 36 36 36 36 37 38 38 39 39 39 38 38 38 38 37 37 37 37 36 35 34 35 37 37 38 38 38 38 38 38 38 38 38 38 38
64 64 64 63 62 61 61 59 57 55 53 50 48 46 44 41 39 37 36 34 33 31 30 29 29 28 28 28 29 29 29 29 30 30 30 30 31 31 31 32 32 32 33 33 33 34 34 34 34 35 35 35 35 36 36 37 37 38 38 38 37 37 37 37 37 36 36 34 34 34 34 35 36 37 37 37 37 37 36 36 35 35 36 37 37
63 63 62 61 61 60 59 57 56 54 51 48 45 43 40 38 36 35 33 32 31 30 28 28 27 27 27 28 28 28 28 28 29 29 29 30 30 30 31 31 31 32 32 33 33 33 33 33 34 34 34 34 34 35 35 35 36 37 37 37 36 36 36 36 35 35 34 33 33 34 34 34 35 35 35 35 35 35 35 34 34 35 36 36 36
62 60 60 60 60 59 57 55 53 51 47 45 43 41 38 37 35 33 31 30 29 28 27 26 26 26 27 27 27 27 27 27 28 28 28 29 29 29 30 30 31 31 31 32 32 32 32 32 33 33 33 33 33 34 34 34 35 35 36 36 35 35 35 35 34 34 33 33 34 33 33 34 34 34 34 34 33 34 34 34 35 35 35 36 36
59 59 59 59 58 56 54 52 50 47 45 43 41 40 38 36 34 32 30 29 27 26 26 25 25 26 26 26 26 26 27 27 27 28 28 28 28 29 29 29 30 30 30 30 31 31 31 31 32 32 32 32 32 32 33 33 34 34 35 35 35 35 35 34 34 34 33 33 33 33 33 34 34 33 33 33 33 33 34 34 34 34 34 34 34
57 58 59 57 55 53 52 50 47 45 44 42 40 39 37 35 33 30 29 28 26 26 25 25 25 25 25 25 25 26 26 26 27 27 27 27 27 28 28 28 28 29 29 29 30 30 30 30 31 31 32 32 31 31 32 32 33 34 34 34 34 34 34 34 33 33 33 33 33 33 34 34 33 33 32 32 32 32 33 33 33 33 33 32 32
57 58 57 55 52 51 49 48 46 44 42 41 40 38 36 34 32 30 28 27 26 26 26 25 25 25 25 25 25 26 26 26 26 26 26 26 27 27 27 27 28 28 28 28 29 29 29 30 30 31 31 31 30 31 31 31 32 32 33 33 33 32 32 33 33 33 33 33 33 33 33 32 31 31 30 30 31 31 32 32 32 32 31 30 30
57 56 54 52 50 48 47 46 45 43 42 41 39 37 35 33 32 30 29 28 27 27 26 26 26 26 26 26 26 26 26 26 25 25 25 26 26 26 26 26 27 27 27 27 28 28 29 29 30 30 30 30 30 30 30 31 31 31 31 31 31 31 31 32 32 32 32 32 32 32 31 31 30 30 30 30 30 30 31 30 30 29 29 28 28
54 53 51 49 48 47 46 45 44 43 41 40 39 37 35 34 32 31 30 29 28 27 27 27 26 26 26 26 25 25 25 25 25 25 25 25 25 25 25 26 26 26 27 27 28 28 29 29 29 29 29 30 30 30 30 30 31 31 31 30 30 30 30 30 30 30 30 30 30 30 30 29 29 29 30 29 29 29 29 29 28 28 28 27 27
52 51 49 47 46 45 45 44 43 42 41 40 38 37 35 34 33 31 30 29 29 28 27 27 27 26 26 25 25 25 25 25 25 24 24 24 25 25 25 26 26 26 27 27 28 28 29 29 29 29 30 30 30 30 31 31 31 31 31 31 31 31 30 29 30 30 31 30 29 29 28 28 28 29 29 28 28 28 27 27 27 27 27 26 26
50 48 46 45 44 43 43 43 42 41 40 39 38 37 36 34 33 32 31 30 29 29 28 27 27 26 26 26 25 25 25 25 25 25 25 25 25 26 26 27 27 27 28 28 29 29 29 30 30 30 30 30 31 31 31 32 32 32 32 32 31 31 31 31 32 32 31 30 28 28 28 28 28 28 28 28 27 27 26 26 26 26 25 25 24
48 46 45 44 42 42 42 42 41 41 40 39 38 37 36 35 34 33 32 31 30 29 28 28 27 27 26 26 26 26 25 25 25 25 25 26 26 27 27 28 28 28 29 29 30 30 30 31 31 30 30 30 30 31 31 31 31 31 31 31 31 31 32 32 32 31 29 28 27 28 28 28 27 27 27 27 26 26 25 25 25 24 24 24 23
Wind_Direction
294 293 292 292 291 291 291 290 289 289 288 288 287 287 287 286 287 286 286 287 287 286 286 285 285 285 284 284 284 283 282 282 281 281 281 281 280 281 281 280 280 279 279 278 278 277 277 276 276 275 275 274 273 272 271 270 270 269 269 268 268 267 267 267 267 267 267 266 266 266 265 265 264 264 264 263 263 262 262 262 261 259 258 258 258
295 294 293 293 292 292 292 292 292 291 291 290 289 289 288 288 287 287 287 287 287 287 287 286 286 285 285 285 284 284 283 282 282 282 281 281 281 281 281 281 280 279 279 278 278 277 277 277 276 276 275 274 273 272 272 271 270 270 269 268 268 267 267 267 267 267 267 267 266 266 266 265 264 263 263 262 261 261 261 261 260 259 258 257 258
297 295 294 294 294 294 294 293 293 293 293 292 292 291 291 290 289 288 288 288 288 288 287 287 287 286 286 285 285 285 284 284 283 282 282 281 281 281 281 281 280 280 279 279 278 278 277 277 277 276 276 275 274 273 272 271 271 270 270 269 268 268 267 267 267 267 267 267 266 265 265 265 264 263 262 261 261 260 260 260 259 258 258 257 257
299 298 296 296 296 296 296 295 295 295 295 295 294 294 293 292 292 291 290 290 289 289 289 288 288 287 287 287 286 285 285 284 283 283 282 282 282 282 282 281 281 280 280 279 278 278 277 277 277 276 276 275 274 273 272 271 271 271 270 270 269 269 268 268 267 267 267 266 265 264 264 263 262 262 263 262 261 260 259 258 258 258 257 257 258
302 301 299 298 297 297 298 297 297 297 296 296 296 296 295 295 294 293 293 292 291 291 291 290 290 289 289 288 288 286 286 285 284 283 282 282 281 281 281 281 280 280 279 278 278 277 277 277 276 276 275 275 274 273 272 271 271 270 270 269 269 269 268 268 267 267 266 266 265 264 264 262 261 262 263 262 260 260 259 258 258 258 258 258 258
303 303 302 299 298 299 299 299 299 298 298 298 298 298 297 297 296 296 295 294 293 293 293 292 292 291 290 290 289 288 287 287 285 284 283 282 281 281 280 280 280 279 279 278 277 277 276 276 276 275 275 274 273 272 271 271 270 270 269 269 268 268 268 268 267 266 266 265 264 263 263 262 262 264 263 261 260 261 260 259 259 259 259 259 259
306 305 304 302 300 300 300 300 300 300 300 300 300 300 300 299 299 298 297 297 296 295 294 294 293 292 292 291 290 289 288 288 287 285 284 283 283 282 282 281 281 280 279 278 277 277 276 276 275 275 274 273 273 272 271 270 270 269 269 268 268 267 267 267 266 266 266 265 264 263 263 262 262 263 262 261 261 260 259 260 260 260 260 260 259
309 309 307 305 303 301 301 301 301 302 301 301 301 302 301 301 300 300 299 298 297 297 296 296 295 294 294 293 292 291 290 290 289 287 286 285 284 284 283 283 282 281 280 279 279 277 277 276 276 275 274 274 273 272 271 270 270 269 269 268 268 267 266 266 266 265 265 265 265 264 264 263 262 262 261 261 261 260 260 260 260 260 260 260 260
311 311 310 308 305 303 302 303 303 303 303 303 303 303 303 302 302 301 300 299 298 297 297 297 297 296 296 295 294 294 293 292 290 289 287 287 286 285 285 284 284 283 282 281 280 279 278 277 276 276 275 274 273 272 271 271 270 270 269 269 268 267 267 266 266 265 265 265 265 265 264 264 263 262 262 261 261 260 260 259 259 260 259 259 259
312 311 310 309 307 304 304 304 304 303 303 303 304 305 304 304 303 302 301 300 299 299 298 299 299 299 298 297 296 295 294 293 291 290 289 288 287 286 286 285 285 284 283 282 281 280 279 278 278 277 276 275 274 273 272 271 271 270 269 269 268 268 267 267 266 266 266 265 265 265 264 264 264 263 262 262 262 261 260 259 259 260 259 259 259
313 312 311 310 309 307 305 305 304 303 303 303 303 304 304 304 303 302 302 302 301 301 300 300 301 300 300 299 298 297 296 294 293 291 290 289 288 287 287 286 285 285 284 283 282 281 280 280 279 278 277 276 275 274 273 272 271 271 270 269 269 268 268 267 267 266 266 266 265 265 264 264 264 263 263 263 262 261 261 260 260 260 260 259 259
314 314 312 311 310 308 306 305 304 303 302 302 302 303 303 302 302 302 302 302 302 302 301 301 301 301 300 300 299 298 297 295 294 293 292 291 290 289 288 287 286 286 285 284 283 282 281 281 280 279 278 277 276 275 274 273 272 272 271 270 269 269 268 267 267 267 266 266 265 265 264 264 263 263 263 263 262 262 262 261 261 261 260 259 259
314 314 313 312 310 308 306 305 304 303 302 301 301 302 302 301 301 300 301 301 302 302 301 301 301 300 300 300 299 299 298 296 294 293 292 291 291 289 288 288 287 287 286 284 284 283 282 281 280 280 279 278 277 276 275 274 273 273 272 271 270 269 269 268 267 267 267 266 266 265 265 264 264 263 263 263 262 262 262 262 261 261 260 259 259
313 313 313 312 310 308 306 305 304 303 302 301 301 301 301 300 299 299 299 300 300 300 300 300 300 300 300 299 299 299 298 297 295 294 293 292 291 290 289 288 288 287 286 285 284 283 282 282 281 280 279 278 277 277 276 275 274 274 273 272 271 270 269 268 268 267 267 267 266 266 265 265 264 264 263 263 262 262 262 262 262 262 261 260 259
313 312 312 311 309 308 307 306 305 303 302 302 301 301 300 299 298 297 298 298 299 299 299 299 299 300 299 299 299 299 299 297 295 294 293 292 291 290 289 289 288 288 287 285 285 284 283 282 282 281 280 279 278 277 276 276 275 274 274 273 272 271 270 269 269 268 267 267 266 266 266 265 265 264 264 263 262 262 262 262 262 262 261 260 260
313 312 311 310 309 308 307 306 305 304 303 302 301 300 299 298 297 297 296 297 297 298 298 299 299 299 299 299 299 299 299 298 295 294 293 292 291 290 289 289 288 288 287 286 285 284 283 283 282 281 281 280 279 278 277 277 276 275 274 274 273 272 271 271 270 269 268 268 267 266 266 265 265 265 264 264 263 263 262 262 262 261 261 261 260
312 312 311 310 309 308 307 306 305 304 303 302 301 300 299 298 297 296 295 295 296 297 297 298 298 299 298 298 298 298 298 297 295 294 293 292 291 290 289 289 288 288 287 286 285 285 284 283 283 282 281 280 279 279 278 277 277 276 275 274 274 273 272 271 271 270 269 269 268 267 266 266 265 265 265 264 264 263 263 263 262 261 261 260 260
312 311 311 310 309 308 307 306 304 303 302 302 301 300 299 299 297 295 294 294 294 295 296 297 297 298 298 298 298 298 298 297 295 293 292 291 290 289 289 288 288 287 287 286 286 285 284 284 283 283 282 281 280 279 278 278 277 277 276 275 274 273 273 272 271 270 270 269 269 268 267 267 266 266 265 264 264 264 263 263 263 262 261 261 260
311 311 311 310 309 308 307 306 305 303 302 301 301 301 300 299 297 295 294 293 293 294 295 296 296 297 297 297 297 297 297 296 294 293 292 291 290 289 289 288 287 287 287 286 286 285 285 284 284 283 283 282 281 280 279 279 278 277 276 276 275 274 273 272 272 271 270 270 269 269 268 268 267 266 266 265 264 264 263 263 263 262 262 261 261
311 311 311 310 309 308 307 306 305 304 303 302 302 301 300 298 297 295 294 293 293 293 294 295 296 296 296 296 297 297 297 295 294 292 291 290 289 289 288 287 287 287 286 286 286 285 285 284 284 283 283 282 282 281 280 280 279 278 277 276 276 275 274 273 273 272 271 271 270 269 269 268 268 267 267 266 265 264 264 263 262 262 262 261 261
312 312 311 311 309 308 308 307 306 305 304 303 302 301 300 299 297 295 294 293 292 293 293 294 295 296 295 296 296 296 296 295 293 291 290 290 289 288 287 287 287 286 286 286 285 285 285 284 284 283 283 282 282 281 281 280 279 279 278 277 277 276 275 274 274 273 272 272 271 270 270 269 269 268 268 267 266 265 264 263 263 262 262 261 261
312 312 312 311 310 309 308 307 306 305 304 303 302 301 300 298 297 295 294 293 292 292 293 294 295 295 295 295 296 296 295 294 292 291 290 289 288 287 286 286 286 286 285 285 285 285 285 284 283 283 283 282 282 281 281 280 280 279 279 278 277 277 276 275 275 274 273 272 272 271 271 270 270 269 268 268 267 266 265 264 263 263 262 262 261
313 312 312 311 310 309 308 308 307 306 304 303 302 301 300 298 297 295 294 293 292 292 292 293 294 294 294 295 295 295 294 293 291 290 289 288 288 287 286 286 286 285 285 285 285 285 284 284 283 283 283 282 282 282 281 280 280 279 279 279 278 277 277 276 275 275 274 274 273 272 272 271 271 270 269 268 268 267 266 265 264 264 263 263 262
313 313 312 311 311 310 309 308 308 307 305 304 302 301 300 299 297 295 294 293 292 292 292 292 293 294 294 294 294 294 294 292 290 289 288 288 287 286 286 286 285 285 285 285 284 284 284 283 283 283 283 282 282 282 281 281 280 280 280 279 279 278 277 277 276 275 275 274 274 273 273 272 272 271 270 269 268 267 266 265 265 264 264 263 263
314 313 313 312 312 311 310 310 309 308 307 305 303 302 300 299 297 296 295 293 292 292 292 292 292 293 294 294 293 293 293 291 289 288 287 287 286 286 285 285 284 284 284 284 284 284 283 283 283 282 282 282 282 281 281 281 281 280 280 280 279 279 278 277 276 276 276 275 275 274 274 273 273 272 271 270 269 268 267 266 265 265 264 264 263
313 313 313 313 313 312 311 310 310 309 308 306 304 303 301 299 298 296 295 293 292 291 291 291 292 293 293 293 293 293 292 290 289 287 286 286 285 285 284 284 283 283 283 283 283 283 283 283 282 282 282 281 281 281 281 281 281 281 281 280 280 279 279 278 277 277 276 276 275 275 274 274 273 272 271 271 270 268 267 267 266 265 265 265 264
314 313 313 313 313 313 312 311 311 310 309 307 305 303 301 299 298 296 295 294 292 292 291 292 292 293 293 293 293 294 293 291 288 287 286 285 284 283 283 283 283 283 283 283 283 283 283 282 282 282 281 281 281 281 281 281 281 281 281 281 280 280 279 279 278 278 277 277 276 275 275 274 273 272 272 271 270 269 268 267 266 266 266 265 265
314 314 314 314 314 313 313 312 311 310 309 308 306 303 301 300 298 297 295 294 293 292 292 292 293 293 293 294 294 294 293 290 288 286 285 284 283 283 282 282 282 282 282 282 282 282 282 282 282 282 282 281 281 281 281 281 281 281 281 281 281 280 280 279 279 279 278 278 277 276 276 275 274 273 272 272 271 270 269 268 267 266 266 265 265
315 315 315 315 314 314 313 312 311 311 310 309 307 305 302 301 299 297 296 294 293 292 292 292 293 293 293 294 294 294 293 290 287 285 284 283 282 282 282 282 282 282 282 282 282 282 282 282 282 282 282 282 281 281 281 281 281 281 281 281 281 280 280 280 280 280 279 279 278 278 277 276 275 274 274 273 272 270 269 268 267 267 266 266 265
316 316 316 316 315 315 314 314 314 313 311 310 308 306 304 302 300 298 296 294 293 292 292 292 293 293 294 294 294 294 292 288 285 284 283 282 282 282 282 282 282 282 282 282 282 282 282 282 282 282 282 282 281 281 282 282 281 281 281 281 281 281 281 281 281 280 280 280 279 279 278 277 276 276 275 274 273 271 270 269 268 267 266 266 265
317 317 318 318 317 317 316 315 314 313 312 310 309 307 304 302 300 298 296 295 294 293 292 293 293 294 294 294 293 293 291 287 284 283 282 282 282 282 282 282 282 282 282 282 282 282 282 282 282 282 282 282 282 282 282 282 282 282 282 282 281 281 281 281 281 280 280 280 280 279 278 278 277 277 276 275 273 272 271 270 269 267 266 265 265
320 320 320 319 318 317 316 315 314 314 313 311 309 307 305 303 301 299 297 296 295 294 294 294 294 294 293 293 293 293 289 285 283 282 282 282 282 282 282 282 282 282 282 282 282 282 282 282 282 282 282 282 282 282 283 283 283 283 283 282 282 281 281 281 281 281 280 280 280 280 279 279 278 277 276 275 274 273 272 271 269 268 267 266 265
322 321 320 319 318 317 316 316 315 315 314 313 311 308 306 303 302 300 298 297 296 295 295 294 294 293 293 293 293 291 288 284 283 282 282 282 282 282 282 282 282 283 283 283 283 283 283 283 282 282 282 282 282 283 283 283 283 283 283 283 282 282 282 282 282 281 281 281 281 280 280 280 279 278 277 276 274 273 272 271 270 268 267 266 265
322 321 320 319 318 318 318 318 318 317 316 315 313 310 307 304 302 300 299 298 297 296 295 294 294 293 294 294 292 289 286 284 283 282 282 282 282 282 282 282 283 283 283 283 283 283 283 283 283 283 283 283 283 283 284 284 284 284 284 283 283 283 283 283 282 282 282 282 282 281 281 280 279 279 278 277 276 274 273 271 270 269 267 266 266
322 321 321 321 321 321 320 320 319 318 317 316 313 311 308 305 303 301 300 299 298 296 295 295 294 295 295 294 291 288 286 284 284 283 283 282 282 283 283 283 283 283 283 283 283 283 284 283 283 283 283 283 283 284 284 284 285 285 284 284 283 283 283 283 283 282 282 282 282 282 281 281 280 279 279 278 276 275 273 272 270 269 268 267 266
323 323 323 324 323 323 322 321 320 319 318 316 314 312 309 308 306 304 302 300 299 298 297 296 296 296 295 293 290 288 286 285 285 284 284 283 283 284 284 284 284 284 284 284 284 284 284 284 284 284 284 284 284 285 285 285 285 285 285 284 284 284 284 283 283 283 283 283 283 283 282 282 281 280 279 278 277 275 274 272 271 270 269 268 267
325 325 325 325 324 324 323 322 322 321 320 318 316 314 312 310 309 307 304 302 300 299 298 298 298 297 295 293 291 289 287 286 286 285 285 285 285 285 285 285 284 284 285 285 284 285 285 284 285 285 284 285 285 285 285 286 286 286 286 285 285 285 284 284 284 284 284 283 283 283 283 282 281 280 280 279 277 276 275 274 273 272 271 270 269
327 327 326 326 326 325 325 324 324 323 322 320 317 315 313 311 309 307 305 303 301 300 300 300 299 297 295 293 291 290 289 288 287 287 286 286 286 286 286 286 285 285 285 285 285 285 285 285 285 285 285 285 286 286 286 286 287 287 286 286 286 285 285 285 284 284 284 283 283 283 283 282 281 281 280 279 278 277 276 275 274 273 272 271 270
328 328 327 327 327 327 326 326 325 324 323 321 319 317 314 312 309 307 305 303 302 302 302 301 300 297 295 294 292 291 291 290 289 289 288 288 288 288 287 287 287 287 286 286 286 286 286 286 286 286 286 286 286 286 287 287 287 288 287 287 286 286 286 285 285 284 284 284 284 284 283 282 282 281 281 280 279 278 276 275 275 274 273 272 271
329 329 329 329 329 329 329 328 328 326 325 323 322 320 318 315 312 310 308 307 306 306 305 303 301 299 297 295 294 293 292 291 291 291 290 290 290 289 289 288 288 288 288 288 287 287 287 287 287 287 287 287 287 287 288 288 288 288 288 287 287 287 286 286 286 285 285 285 285 284 283 283 283 282 282 281 280 279 278 277 276 275 274 274 273
329 330 331 331 331 332 331 331 330 328 327 326 325 323 321 320 318 316 314 312 311 309 307 305 302 300 298 297 296 295 294 293 293 293 292 292 291 291 290 290 289 289 289 289 288 288 288 288 288 288 288 288 288 288 288 289 288 288 288 288 287 287 287 287 286 286 286 285 285 284 284 284 284 283 282 281 279 279 279 278 277 276 276 276 275
331 332 333 334 334 334 333 333 332 331 331 330 329 328 327 325 324 322 320 317 315 313 310 307 305 303 301 300 299 298 297 296 295 295 294 294 293 293 292 291 291 290 290 290 289 289 289 289 289 290 290 289 289 289 289 289 289 289 289 289 288 288 288 287 287 287 286 286 285 285 285 285 284 283 282 280 279 280 279 279 278 277 277 277 276
333 335 336 336 336 336 336 335 336 336 336 335 334 333 332 330 329 327 324 322 319 317 314 311 308 306 304 303 301 300 299 299 298 297 296 295 295 294 293 293 292 292 291 291 290 290 290 290 290 291 291 291 291 291 291 290 290 290 289 289 289 288 288 287 288 288 287 286 286 286 285 285 284 283 282 281 280 280 280 279 279 279 279 279 278
336 338 338 339 338 338 338 339 339 340 340 340 339 337 336 334 332 330 328 326 324 321 318 315 312 310 308 306 305 303 302 301 300 299 298 298 297 296 295 295 294 293 293 292 292 292 292 292 292 292 292 293 293 293 292 291 290 290 290 290 290 289 288 288 288 288 288 287 286 286 286 285 284 283 283 282 281 281 281 281 282 282 282 281 279
339 339 340 340 340 340 341 341 342 343 343 343 342 341 340 338 337 335 333 331 328 325 322 319 317 315 313 311 309 308 307 305 304 303 301 300 299 298 297 297 296 295 294 294 294 294 293 293 293 294 294 295 295 294 293 292 291 291 291 291 290 289 289 289 289 289 288 288 287 287 286 286 285 284 283 282 282 283 283 283 283 283 283 282 280
340 341 341 342 343 343 343 344 345 346 346 346 345 345 344 342 341 339 337 335 332 329 326 324 322 320 318 316 314 312 311 309 308 306 304 303 302 300 299 299 298 297 296 296 296 296 295 295 295 295 296 296 296 295 294 294 293 293 292 291 290 290 290 290 289 289 289 288 288 287 287 286 284 283 283 282 282 283 283 282 282 282 282 281 280
341 342 343 344 345 345 346 347 347 348 348 348 348 348 348 346 344 342 340 338 335 333 330 328 326 324 322 320 318 316 315 313 311 310 308 306 305 303 302 301 300 299 299 298 298 298 297 297 297 297 297 297 297 296 295 295 295 294 293 292 291 291 291 290 289 289 289 289 288 288 286 284 282 281 281 282 281 281 281 281 281 281 281 281 279
343 344 345 346 347 347 348 349 349 350 350 350 351 351 350 349 347 345 343 340 338 336 333 331 329 327 325 324 321 320 318 317 315 313 311 309 308 306 304 303 302 302 301 300 300 300 299 299 299 300 299 299 298 297 296 296 296 295 294 293 292 291 290 289 288 289 289 289 288 287 286 284 282 281 281 281 281 281 281 281 281 282 281 280 279
344 345 346 347 348 349 350 351 351 352 352 352 353 353 352 351 350 348 346 343 340 338 336 334 332 331 329 327 325 323 321 320 318 316 314 312 311 309 307 306 305 304 303 302 302 301 301 301 301 301 300 300 299 298 298 297 296 294 293 293 292 291 290 289 289 290 290 290 288 287 285 284 283 282 281 281 281 281 281 280 281 281 281 280 279
346 346 347 348 349 350 351 351 352 353 354 354 354 354 354 353 352 350 348 346 343 341 339 336 335 333 331 330 328 326 324 323 321 319 317 315 313 311 309 308 307 306 305 303 302 302 302 302 302 301 300 299 298 299 299 297 296 295 295 294 293 292 291 291 291 291 290 290 288 287 286 286 285 283 282 281 280 280 280 280 280 280 280 280 278
346 347 348 349 349 350 351 352 353 354 355 355 355 355 355 354 354 353 351 349 347 345 342 340 339 337 335 333 331 329 327 325 323 321 319 317 315 313 311 309 308 307 306 305 303 303 303 303 303 303 302 300 300 300 299 298 298 298 297 296 294 293 292 292 292 291 290 289 288 287 287 286 286 284 282 280 279 278 278 278 279 279 279 278 277